Weather History for Frederick, OK

Change the Weather History Date:

Thursday, February 7, 2013

  Actual Average (KLTS) Record (KLTS)
Temperature  
Mean Temperature 54 °F -  
Max Temperature 64 °F 52 °F 28 °F (2014)
Min Temperature 42 °F 29 °F 15 °F (2014)
Degree Days  
Heating Degree Days 10    
Growing Degree Days 4 (Base 50)    
Moisture  
Dew Point 45 °F    
Average Humidity 70    
Maximum Humidity 93    
Minimum Humidity 46    
Precipitation  
Precipitation 0.00 in - - ()
Sea Level Pressure  
Sea Level Pressure 29.88 in    
Wind  
Wind Speed 16 mph (North)    
Max Wind Speed 32 mph    
Max Gust Speed 43 mph    
Visibility 10 miles    
Events      
Averages and records for this station are not official NWS values.
T = Trace of Precipitation, MM = Missing Value Source: NWS Daily Summary

Daily Weather History Graph

Daily Weather History Graph

Search for Another Location

Airport:

Trip Planner

Search our weather history database for the weather conditions in past years. The results will help you decide how hot, cold, wet, or windy it might be!

Date:

Astronomy

Feb. 07, 2013 Rise Set
Actual Time 7:28 AM CST 6:12 PM CST
Civil Twilight 7:02 AM CST 6:38 PM CST
Nautical Twilight 6:32 AM CST 7:07 PM CST
Astronomical Twilight 6:03 AM CST 7:37 PM CST
Moon 5:05 AM CST (2/7) 3:41 PM CST (2/7)
Length of Visible Light 11h 35m
Length of Day
10h 43m
Waning Crescent, 9% of the Moon is Illuminated
Feb 7
Waning Crescent
Feb 10
New
Feb 17
First Quarter
Feb 25
Full
Mar 4
Last Quarter

Hourly Weather History & Observations

Time (CST) Temp. Windchill Dew Point Humidity Pressure Visibility Wind Dir Wind Speed Gust Speed Precip Events Conditions
12:53 AM 57.9 °F - 55.0 °F 90% 29.75 in 10.0 mi SE 13.8 mph - N/A   Scattered Clouds
1:07 AM 59.0 °F - 55.4 °F 88% 29.78 in 10.0 mi SE 12.7 mph - N/A   Mostly Cloudy
1:53 AM 57.9 °F - 55.0 °F 90% 29.74 in 10.0 mi SE 13.8 mph - N/A   Mostly Cloudy
2:48 AM 59.0 °F - 55.4 °F 88% 29.76 in 10.0 mi SSE 16.1 mph - N/A   Scattered Clouds
2:53 AM 57.9 °F - 55.0 °F 90% 29.72 in 10.0 mi SSE 16.1 mph - N/A   Scattered Clouds
3:53 AM 57.0 °F - 54.0 °F 89% 29.70 in 10.0 mi SSE 11.5 mph - N/A   Clear
4:53 AM 55.9 °F - 53.1 °F 90% 29.69 in 10.0 mi South 11.5 mph - N/A   Clear
5:53 AM 55.0 °F - 52.0 °F 89% 29.70 in 10.0 mi South 11.5 mph - N/A   Clear
6:53 AM 53.1 °F - 51.1 °F 93% 29.71 in 10.0 mi South 11.5 mph - N/A   Clear
7:53 AM 51.1 °F - 48.0 °F 89% 29.74 in 10.0 mi WSW 9.2 mph - N/A   Clear
8:53 AM 50.0 °F - 39.9 °F 68% 29.77 in 10.0 mi West 12.7 mph - N/A   Clear
9:53 AM 55.0 °F - 46.9 °F 74% 29.79 in 10.0 mi NW 13.8 mph - N/A   Clear
10:53 AM 63.0 °F - 51.1 °F 65% 29.82 in 10.0 mi NNW 20.7 mph 26.5 mph N/A   Scattered Clouds
11:01 AM 62.6 °F - 51.8 °F 68% 29.85 in 10.0 mi North 23.0 mph - N/A   Mostly Cloudy
11:53 AM 61.0 °F - 51.1 °F 70% 29.85 in 10.0 mi North 28.8 mph 35.7 mph N/A   Overcast
12:36 PM 62.6 °F - 48.2 °F 59% 29.89 in 10.0 mi North 32.2 mph 40.3 mph N/A   Overcast
12:53 PM 64.0 °F - 48.0 °F 56% 29.87 in 10.0 mi North 32.2 mph 42.6 mph N/A   Mostly Cloudy
1:53 PM 61.0 °F - 44.1 °F 54% 29.90 in 10.0 mi North 25.3 mph 38.0 mph N/A   Overcast
2:53 PM 63.0 °F - 42.1 °F 46% 29.92 in 10.0 mi North 28.8 mph 36.8 mph N/A   Overcast
3:53 PM 57.9 °F - 42.1 °F 56% 29.96 in 10.0 mi North 27.6 mph 33.4 mph N/A   Overcast
4:53 PM 59.0 °F - 41.0 °F 51% 29.99 in 10.0 mi North 24.2 mph 29.9 mph N/A   Mostly Cloudy
5:53 PM 55.9 °F - 39.9 °F 55% 30.01 in 10.0 mi North 16.1 mph - N/A   Clear
6:53 PM 51.1 °F - 34.0 °F 52% 30.06 in 10.0 mi North 6.9 mph - N/A   Clear
7:53 PM 46.0 °F 41.4 °F 30.9 °F 56% 30.09 in 10.0 mi North 9.2 mph - N/A   Clear
8:53 PM 46.0 °F 41.0 °F 30.0 °F 54% 30.12 in 10.0 mi North 10.4 mph - N/A   Clear
9:53 PM 46.0 °F 40.6 °F 30.0 °F 54% 30.14 in 10.0 mi North 11.5 mph - N/A   Clear
10:53 PM 45.0 °F 39.3 °F 30.9 °F 58% 30.15 in 10.0 mi North 11.5 mph - N/A   Clear
11:53 PM 42.1 °F 36.1 °F 30.0 °F 62% 30.17 in 10.0 mi North 10.4 mph - N/A   Clear